International Virtual Aviation Organisation

Russian Federation and Kazakhstan MCD

 

Карточка аэропорта UUDD

Внимание!
Информация на этой странице в стадии наполнения.
Если вы не увидели какой-то информации, или заметили неточность - пожалуйста сообщите нам!
Спасибо!
Команда RU-STAFF
Название аэропортаДомодедово
Название аэропорта (англ.)Domodedovo
Превышение594 ft. (181.1 m.)
Координаты55°24.516', 37°54.384'
Высота перехода1200 m
Эшелон переходаBy ATC
Коды ответчика1540-1577
Зона ОрВДМосква РПИ (UUWV)
Данные METARUUDD 211100Z 29006MPS 260V330 9999 BKN032CB 22/12 Q1016 R88/70D NOSIG
Проноз погоды (TAF)UUDD 210758Z 2109/2215 28007G13MPS 9999 SCT011 TX23/2112Z TN14/2201Z TEMPO 2109/2119 3100 -SHRA BKN020 SCT030CB PROB40 TEMPO 2109/2119 -TSRA BKN025CB TEMPO 2120/2206 BKN004 PROB40 TEMPO 2120/2204 0300 FG BKN002
NOTAMshow/hide NOTAM
AWOS   TABLE

Информация о ВПП

ВПП Длина ВПП (м.) Покрытие Курс ВПП Частота ILS
14L3793Бетон136108.5
32R3793Бетон316111.9
14R3500Цементобетон136110.1
32L3500Цементобетон316109.3

Диспетчерские позиции

Позывной Наименование органа УВД Частота
UUDD_GNDДомодедово-Перрон119.000
UUDD_R_APPДомодедово-Круг127.700
UUDD_TWRДомодедово-Вышка119.700
UUDD_DELДомодедово-Деливери 129.150
UUDDFM1Машина сопровождения119.000



Спутниковое изображение